Regional Weather Roundup
Issued by NWS

Home | Current Version | Previous Version | Graphics & Text | Print | Product List | Glossary Off
Versions: 1 2 3 4 5 6 7 8 9 10 11 12 13 14 15 16 17 18 19 20 21 22 23 24 25 26 27 28 29 30 31 32 33 34 35 36 37 38 39 40 41 42 43 44 45 46 47 48 49 50

000
ASUS43 KDMX 192207
RWRIA

WEATHER ROUNDUP FOR IOWA
NATIONAL WEATHER SERVICE DES MOINES IA
500 PM CDT SUN OCT 19 2014

NOTE: "FAIR" INDICATES FEW OR NO CLOUDS BELOW 12,000 FEET WITH NO
SIGNIFICANT WEATHER AND/OR OBSTRUCTIONS TO VISIBILITY.

* - THESE STATIONS ARE NOT NWS STATIONS...THUS NOT UNDER NWS
QUALITY CONTROL.  THEY ALSO DO NOT REPORT WEATHER SUCH
AS PRECIPITATION OR FOG.

IAZ001>003-012>014-020>022-031>034-043>046-192300-
   NORTHWEST IOWA

CITY           SKY/WX    TMP DP  RH WIND       PRES   REMARKS
CARROLL *      SUNNY     68  46  45 SW14G21   29.91S
CHEROKEE *     SUNNY     70  48  46 W8        29.89F
DENISON *      SUNNY     70  46  43 SW10G16   29.90S
LE MARS *      SUNNY     73  46  38 W6G13     29.90S
ORANGE CITY *  SUNNY     73  43  33 W12       29.89F
SHELDON *      SUNNY     72  45  37 W9        29.87S
SIOUX CITY     SUNNY     75  45  34 W8        29.90F
SPENCER        SUNNY     71  45  39 W15       29.88S
STORM LAKE *   SUNNY     70  46  43 W16       29.90F
$$

IAZ055>058-069>071-079>083-090>094-192300-
   SOUTHWEST IOWA

CITY           SKY/WX    TMP DP  RH WIND       PRES   REMARKS
ATLANTIC *     SUNNY     68  48  49 SW13      29.93F
AUDUBON *      SUNNY     70  43  37 SW10G17   29.94S
CLARINDA *     SUNNY     70  48  46 SW14      29.97F
COUNCIL BLFS * SUNNY     72  50  46 SW9       29.93S
CRESTON *      SUNNY     64  46  52 SW14G21   29.96F
HARLAN  *      SUNNY     70  48  46 SW15      29.96F
LAMONI         MOSUNNY   64  47  53 SW13      29.98F
$$

IAZ047>049-059>061-072>074-084-192300-
   CENTRAL IOWA

CITY           SKY/WX    TMP DP  RH WIND       PRES   REMARKS
AMES           SUNNY     66  45  46 SW16      29.91F
ANKENY *       SUNNY     66  48  52 SW12G20   29.93S
CHARITON *     SUNNY     66  45  45 SW15      29.96F
DES MOINES     MOSUNNY   67  46  47 SW13G21   29.93F
GRINNELL*      MOSUNNY   64  45  48 SW14G20   29.94F
KNOXVILLE *    MOSUNNY   64  43  45 SW12G18   29.93F
MARSHALLTOWN   SUNNY     64  46  52 SW15      29.91F
PELLA *        MOSUNNY   64  46  52 SW7       29.95F
PERRY *          N/A     68  46  45 SW15      29.92F
$$

IAZ004>006-015-016-023>025-035-036-192300-
   NORTH CENTRAL IOWA

CITY           SKY/WX    TMP DP  RH WIND       PRES   REMARKS
ALGONA *       SUNNY     70  48  46 W13       29.87F
CLARION *      SUNNY     68  46  45 W15G21    29.89S
ESTHERVILLE    SUNNY     70  44  39 W14G21    29.85F
FORT DODGE *   SUNNY     66  48  52 SW10      29.90F
MASON CITY     SUNNY     67  46  47 W14G24    29.87F
FOREST CITY *  SUNNY     68  46  45 W8G20     29.85F
IOWA FALLS *     N/A     66  45  45 SW17G24   29.90F
$$

IAZ007>011-017>019-026>030-037>042-050>054-066-192300-
   NORTHEAST IOWA

CITY           SKY/WX    TMP DP  RH WIND       PRES   REMARKS
CEDAR RAPIDS   MOSUNNY   62  43  49 SW14G24   29.93F
CHARLES CITY * SUNNY     66  45  45 SW18      29.88S
CLINTON *      CLOUDY    59  43  55 SW13      30.00F
DECORAH *      SUNNY     63  45  51 SW8G16    29.86F
DUBUQUE        MOSUNNY   58  43  57 S18G26    29.92F
MONTICELLO *   SUNNY     61  45  55 S15G23    29.93F
OELWEIN *      MOSUNNY   63  45  51 SW22G28   29.89F
WATERLOO       LGT RAIN  64  46  52 SW12G23   29.88F
$$

IAZ064-065-067-068-078-192300-
   EAST CENTRAL IOWA

CITY           SKY/WX    TMP DP  RH WIND       PRES   REMARKS
DAVENPORT      CLOUDY    59  41  51 S13       29.98F
IOWA CITY      PTSUNNY   63  43  48 S12       29.97F
MT. PLEASANT * PTSUNNY   63  41  45 S12G17    29.99F
MUSCATINE *    PTSUNNY   64  41  42 SW12G21   29.98F
QUAD CITIES    CLOUDY    60  41  49 SW13      29.98F
$$

IAZ062-063-075>077-085>089-095>099-192300-
   SOUTHEAST IOWA

CITY           SKY/WX    TMP DP  RH WIND       PRES   REMARKS
BURLINGTON     PTSUNNY   62  45  53 SW12      30.00F
FAIRFIELD *    MOSUNNY   64  41  42 S12G21    29.98F
FORT MADISON * SUNNY     64  45  48 S7        30.01F
KEOKUK *       SUNNY     63  43  48 SW9       30.01F
OSKALOOSA *    PTSUNNY   63  43  48 SW14      29.96F
CENTERVILLE *  SUNNY     63  45  51 S10       30.00F
OTTUMWA        PTSUNNY   63  42  46 SW10      29.97F
WASHINGTON *   PTSUNNY   63  45  51 SW14G20   29.97F
$$

ABBREVIATIONS USED IN REMARKS
   TC - TEMPERATURES IN CELSIUS
  WCI - WIND CHILL INDEX
   HX - HEAT INDEX
  VSB - VISIBILITY
$$




USA.gov is the U.S. government's official web portal to all federal, state and local government web resources and services.